Temp
56 57 57 58 59 59 59 58 53 46 48 52 48 54 56 51 49 48 47 49 48 48 48 50 50 50 51 51 52 52 51 52 53 52 50 50 51 52
54 54 55 56 57 58 57 57 56 54 47 53 52 53 54 52 49 47 46 48 46 46 46 47 47 48 48 48 49 48 48 49 51 49 47 48 49 50
52 51 52 54 54 56 55 55 53 53 49 49 54 52 51 49 47 48 47 44 44 45 45 45 45 45 45 45 45 45 45 47 47 45 44 46 48 47
48 49 49 51 51 52 52 51 51 52 51 44 49 48 48 48 46 46 45 46 43 44 44 44 43 43 43 43 43 43 43 43 41 41 42 44 45 43
44 44 46 48 48 49 49 49 50 50 48 47 44 45 46 43 43 42 43 40 44 43 42 42 42 41 41 41 41 40 40 38 38 38 40 40 39 39
40 41 43 44 46 48 47 46 42 40 41 43 41 41 40 41 40 36 35 37 37 41 41 40 40 39 40 39 38 39 38 37 37 37 38 37 36 36
35 35 38 41 41 40 42 41 41 39 38 38 36 35 33 34 34 35 33 32 33 33 33 35 34 34 35 37 37 38 37 36 36 37 37 36 35 35
33 33 33 34 35 36 36 36 38 38 36 36 33 33 32 33 32 33 31 30 28 33 30 29 33 33 35 34 37 37 36 36 36 37 36 35 35 34
32 32 32 32 33 32 33 34 34 34 33 35 33 32 32 33 33 32 31 31 31 32 32 29 32 32 36 38 38 36 36 36 36 37 35 34 34 33
33 32 32 32 32 32 31 31 31 32 33 35 33 32 33 34 34 34 33 32 32 33 34 29 32 31 30 31 36 36 35 35 36 36 34 33 33 33
33 33 33 32 33 33 30 29 29 30 34 36 36 36 35 35 35 34 30 29 27 28 31 30 30 29 29 25 29 33 33 34 35 36 34 33 33 33
31 31 32 32 33 32 30 29 28 29 30 30 31 32 33 34 34 35 34 30 28 27 30 28 28 27 23 26 27 26 27 32 33 33 33 34 33 29
30 29 29 34 33 33 32 30 29 31 30 31 32 32 32 32 32 33 31 33 31 26 28 29 26 25 26 23 24 27 27 28 27 29 34 34 35 33
30 26 27 34 35 35 33 34 34 33 32 30 29 27 26 26 27 28 29 30 31 30 30 31 26 25 21 19 19 22 23 24 25 25 27 32 35 35
27 30 33 33 33 31 33 34 30 30 29 28 27 26 26 26 27 25 26 28 28 29 30 29 28 26 22 17 16 16 16 20 23 24 25 27 27 28
27 27 25 27 24 26 30 30 28 28 27 27 25 25 24 23 24 25 23 24 22 20 27 26 28 26 19 20 20 15 18 16 20 22 24 25 27 28
27 26 24 21 21 23 26 24 24 26 27 26 25 24 23 25 23 23 24 23 22 21 20 23 27 26 23 23 14 17 18 18 21 23 25 22 24 26
25 25 25 23 23 21 21 20 22 24 25 25 22 21 20 22 21 22 24 21 20 20 20 20 21 18 20 21 27 18 18 17 18 23 23 19 20 23
28 29 29 29 26 25 23 24 21 25 23 22 21 21 23 22 22 20 19 20 19 19 19 20 19 17 12 5 15 30 16 15 15 16 19 18 17 20
30 29 29 29 28 26 25 27 26 23 24 25 25 23 23 18 17 18 17 15 16 16 15 18 18 17 11 8 4 8 25 12 11 12 14 17 19 24
29 28 30 28 26 27 27 28 27 21 22 21 24 19 19 19 18 16 15 12 11 12 10 10 10 15 13 12 4 4 10 27 24 17 16 14 12 13
26 26 28 29 28 25 24 23 23 20 20 19 22 17 16 16 17 14 13 13 11 14 13 14 14 14 13 12 8 5 6 7 20 25 25 22 14 9
27 28 30 25 25 30 25 23 25 23 22 22 23 18 16 14 15 15 16 16 11 9 10 9 10 10 11 12 8 6 6 8 11 12 13 22 23 24
MSLP
1011.97 1011.58 1011.07 1010.68 1010.59 1010.57 1010.45 1010.54 1011.09 1012.28 1012.35 1012.64 1013.16 1013.58 1014.38 1015.37 1016.43 1017.69 1018.78 1019.33 1019.49 1020.08 1021.25 1021.91 1022.10 1021.95 1023.24 1022.90 1023.06 1022.38 1023.70 1024.63 1025.18 1025.33 1025.86 1026.06 1026.28 1025.92
1011.83 1011.53 1011.02 1010.51 1009.84 1009.62 1009.62 1009.51 1009.71 1010.08 1010.85 1011.23 1011.95 1012.92 1013.53 1015.11 1016.25 1016.86 1018.27 1019.39 1019.63 1020.45 1021.22 1021.77 1022.39 1022.34 1023.43 1023.62 1023.22 1023.33 1023.97 1024.85 1025.41 1026.04 1026.53 1026.71 1026.38 1026.40
1011.65 1011.30 1010.66 1010.46 1009.90 1009.44 1008.71 1008.74 1008.65 1009.06 1009.35 1010.19 1010.89 1012.68 1013.29 1014.44 1015.73 1016.81 1017.79 1018.92 1019.76 1020.23 1021.41 1022.07 1022.03 1022.67 1023.68 1024.04 1023.93 1023.79 1023.93 1025.38 1025.79 1026.43 1026.97 1027.07 1026.61 1026.85
1010.97 1010.81 1010.26 1009.93 1009.55 1009.17 1008.62 1008.62 1008.52 1007.81 1007.93 1009.57 1010.59 1012.04 1012.57 1013.73 1014.79 1016.30 1017.55 1018.75 1019.52 1020.21 1021.58 1022.22 1022.68 1023.32 1024.08 1024.17 1024.17 1024.36 1024.82 1025.86 1026.54 1026.96 1027.27 1027.12 1027.14 1027.41
1011.24 1010.87 1010.10 1009.30 1008.80 1008.56 1008.43 1008.41 1008.13 1008.31 1007.85 1007.97 1008.72 1010.49 1012.87 1013.89 1015.59 1016.57 1017.84 1018.61 1019.84 1020.36 1021.61 1022.20 1023.13 1023.77 1024.11 1024.37 1024.39 1024.43 1025.32 1026.39 1026.96 1027.19 1027.38 1027.51 1027.80 1027.99
1011.59 1010.85 1009.96 1009.13 1008.24 1007.93 1007.80 1007.94 1008.30 1008.80 1008.57 1008.54 1009.48 1010.35 1012.39 1013.99 1015.06 1016.62 1017.57 1019.04 1020.05 1020.85 1021.75 1021.91 1023.56 1024.01 1024.11 1024.59 1024.71 1024.73 1025.37 1026.28 1026.92 1027.37 1027.38 1027.79 1028.04 1028.18
1012.13 1011.51 1010.50 1009.25 1008.32 1007.79 1007.53 1007.40 1007.81 1008.66 1008.87 1010.39 1010.76 1011.65 1013.28 1013.85 1015.24 1016.50 1017.43 1018.25 1020.82 1021.32 1022.01 1022.68 1023.67 1024.11 1024.48 1024.60 1024.72 1024.86 1025.44 1026.07 1026.68 1027.09 1027.51 1027.90 1028.15 1028.17
1012.72 1012.01 1011.39 1010.77 1010.09 1009.21 1008.72 1008.48 1007.97 1008.37 1008.94 1010.35 1011.15 1012.44 1013.47 1014.26 1014.76 1016.41 1017.03 1018.00 1020.88 1021.34 1021.70 1022.58 1023.67 1024.00 1023.89 1024.05 1024.34 1024.78 1025.37 1025.74 1026.34 1026.92 1027.47 1027.63 1027.83 1028.13
1013.15 1012.57 1012.29 1012.01 1011.32 1010.88 1010.60 1010.10 1010.06 1009.94 1009.70 1011.38 1011.32 1012.20 1013.21 1014.46 1015.06 1016.94 1017.05 1018.38 1019.50 1020.77 1021.48 1022.32 1023.47 1023.79 1023.27 1023.40 1023.94 1024.60 1024.79 1025.16 1025.93 1026.60 1027.18 1027.73 1027.84 1027.74
1013.67 1013.66 1013.16 1012.85 1012.64 1012.39 1012.24 1012.06 1011.80 1011.34 1011.02 1011.92 1012.02 1012.92 1013.91 1015.01 1015.41 1016.24 1017.56 1018.65 1020.02 1020.85 1021.07 1021.83 1022.56 1023.71 1024.01 1024.10 1024.11 1024.97 1025.18 1025.26 1025.84 1026.23 1027.01 1027.42 1027.79 1027.68
1014.43 1014.44 1014.19 1013.92 1013.89 1013.72 1013.43 1013.12 1012.75 1013.02 1013.12 1012.67 1013.01 1013.96 1014.54 1015.34 1015.87 1016.89 1018.51 1019.20 1020.38 1020.50 1021.47 1022.02 1022.69 1023.63 1024.23 1024.86 1025.13 1025.20 1025.29 1025.72 1025.87 1026.00 1026.81 1027.15 1027.22 1027.23
1015.23 1015.19 1014.92 1014.86 1014.63 1014.55 1014.49 1014.51 1014.36 1014.68 1014.66 1014.66 1015.01 1015.32 1015.71 1016.34 1017.09 1017.54 1018.42 1019.29 1019.83 1020.87 1021.16 1021.77 1022.52 1023.27 1024.15 1024.49 1025.27 1025.61 1025.83 1025.87 1025.96 1026.14 1026.41 1026.43 1026.58 1026.85
1015.60 1015.90 1015.66 1015.26 1015.40 1015.27 1015.16 1015.26 1015.40 1015.54 1015.75 1015.99 1016.36 1016.81 1017.24 1017.41 1017.90 1018.33 1018.69 1018.94 1019.38 1020.28 1021.16 1021.59 1022.82 1023.34 1023.88 1024.80 1025.23 1025.68 1025.80 1025.59 1025.83 1025.83 1025.93 1025.95 1025.87 1026.02
1015.93 1016.04 1015.92 1015.62 1015.37 1015.49 1015.67 1015.67 1015.71 1015.99 1016.34 1016.83 1017.42 1018.21 1018.54 1018.77 1019.35 1019.49 1019.74 1019.87 1019.90 1020.53 1021.54 1021.67 1022.41 1023.05 1023.85 1024.96 1025.48 1025.51 1025.60 1025.41 1025.39 1025.64 1025.64 1025.38 1025.48 1025.30
1016.12 1016.29 1016.29 1016.16 1016.08 1016.14 1016.20 1016.36 1016.49 1016.73 1017.10 1017.65 1018.22 1018.81 1019.28 1019.94 1020.26 1020.83 1021.08 1020.94 1021.16 1021.95 1022.24 1022.22 1022.61 1023.40 1024.03 1024.91 1025.37 1025.51 1025.27 1025.05 1024.97 1025.38 1025.23 1025.25 1025.24 1025.12
1016.60 1016.70 1016.87 1016.92 1017.02 1017.04 1017.19 1017.35 1017.45 1017.55 1018.01 1018.60 1019.21 1019.70 1020.16 1020.54 1021.08 1021.41 1021.63 1022.04 1022.40 1023.04 1023.14 1023.41 1023.55 1023.83 1024.44 1024.85 1025.19 1025.41 1024.99 1025.50 1025.06 1025.12 1024.96 1024.56 1024.63 1024.64
1016.92 1017.04 1017.47 1017.72 1017.76 1017.95 1018.17 1018.26 1018.37 1018.60 1019.10 1019.48 1019.93 1020.48 1020.86 1021.19 1021.71 1021.87 1022.04 1022.12 1022.41 1023.08 1023.60 1023.98 1024.05 1024.24 1024.54 1024.69 1025.16 1025.11 1025.17 1024.99 1024.74 1024.56 1024.46 1024.53 1024.54 1024.66
1016.98 1017.09 1017.42 1017.83 1017.97 1018.21 1018.50 1018.89 1019.00 1019.19 1019.42 1019.80 1020.27 1020.74 1021.22 1021.59 1021.99 1022.09 1022.14 1022.52 1022.83 1023.06 1023.35 1023.72 1024.11 1024.31 1024.23 1024.24 1024.04 1024.48 1024.53 1024.73 1024.81 1024.71 1024.91 1024.87 1024.69 1024.69
1016.84 1016.97 1017.18 1017.61 1017.90 1018.22 1018.60 1018.96 1019.25 1019.35 1019.62 1019.95 1020.42 1020.85 1021.20 1021.65 1022.09 1022.45 1022.61 1022.75 1023.13 1023.28 1023.48 1023.49 1024.04 1024.38 1024.70 1024.76 1024.16 1024.04 1025.03 1025.33 1025.41 1025.28 1025.31 1025.12 1024.84 1024.50
1016.61 1016.75 1016.98 1017.31 1017.69 1018.11 1018.45 1018.79 1019.21 1019.57 1019.83 1020.12 1020.55 1020.92 1021.38 1021.98 1022.19 1022.50 1022.84 1023.04 1023.31 1023.72 1023.98 1024.08 1024.35 1024.77 1025.10 1025.47 1025.54 1025.35 1025.03 1025.20 1025.28 1025.32 1025.09 1024.74 1024.39 1023.97
1016.33 1016.52 1016.67 1017.06 1017.43 1017.67 1018.06 1018.52 1019.11 1019.60 1019.85 1020.20 1020.63 1021.01 1021.38 1021.90 1022.35 1022.55 1023.06 1023.42 1023.85 1024.11 1024.63 1024.76 1025.16 1024.87 1024.97 1025.08 1025.73 1025.63 1025.29 1024.58 1024.61 1024.62 1024.47 1024.35 1023.91 1023.44
1016.31 1016.38 1016.36 1016.61 1016.97 1017.36 1017.83 1018.28 1018.87 1019.41 1019.81 1020.17 1020.55 1020.97 1021.47 1021.89 1022.50 1022.72 1023.17 1023.81 1024.31 1024.57 1024.84 1024.67 1024.79 1024.78 1024.96 1025.35 1025.72 1025.49 1025.26 1024.75 1024.24 1024.04 1023.88 1023.59 1023.19 1022.17
1015.81 1015.92 1016.13 1016.42 1016.76 1017.19 1017.64 1018.07 1018.59 1019.16 1019.58 1020.00 1020.48 1021.03 1021.50 1022.21 1022.26 1022.67 1023.15 1023.54 1024.21 1024.46 1024.69 1024.87 1024.74 1024.78 1025.29 1025.35 1025.34 1025.20 1024.93 1024.60 1024.01 1023.56 1023.30 1022.99 1022.32 1021.58
Wind_Speed
11 11 12 12 12 11 10 11 12 12 13 10 5 12 10 11 17 12 11 17 16 14 13 12 13 14 8 11 13 15 9 8 7 9 8 8 5 5
8 12 12 10 12 12 12 12 11 14 11 10 10 11 13 10 18 13 12 16 17 13 15 14 14 13 10 11 13 13 11 6 7 9 7 5 6 7
12 12 14 14 11 11 10 11 11 12 12 10 13 11 14 15 15 12 14 10 9 15 14 15 13 13 10 9 9 11 12 7 9 8 5 5 6 6
12 14 15 11 15 14 11 13 10 14 12 14 12 11 15 15 16 13 12 10 9 15 14 14 13 13 10 9 9 10 9 10 8 6 4 5 7 6
12 12 15 14 15 11 10 9 9 10 9 9 12 13 10 13 12 12 11 11 8 18 14 13 14 13 12 12 11 11 12 9 6 4 5 7 7 5
8 10 13 14 15 15 13 11 6 4 2 7 10 12 12 13 13 13 11 9 9 9 11 11 11 9 10 9 9 11 11 7 5 6 7 6 6 4
7 9 11 8 6 4 4 8 10 6 7 8 7 6 6 11 12 9 9 11 8 7 6 6 4 4 4 9 9 11 10 9 7 9 9 7 5 4
5 7 9 14 15 20 20 18 7 10 10 7 6 11 8 8 7 9 12 12 6 5 7 5 6 7 8 7 13 13 12 8 8 11 11 9 7 5
7 6 6 6 10 10 17 20 18 18 12 2 10 7 11 9 12 11 10 7 4 9 8 6 7 8 6 7 18 15 12 10 12 14 11 9 7 6
8 7 7 9 11 9 10 12 12 11 7 5 8 8 8 10 10 10 10 6 6 7 4 3 3 5 4 5 14 11 9 10 14 16 12 9 9 9
7 7 7 9 13 13 9 11 12 11 16 16 17 17 18 17 12 9 7 10 6 3 1 3 3 3 3 3 2 6 4 9 13 16 13 11 11 12
6 7 12 8 11 11 7 6 10 8 9 10 12 15 14 12 9 4 8 8 7 4 1 4 2 4 2 1 4 2 2 8 8 9 11 12 12 4
4 3 2 6 7 10 10 7 8 9 11 10 10 8 9 10 9 9 9 3 6 4 2 4 3 2 2 3 1 4 5 4 4 6 12 14 14 11
5 1 2 11 15 15 9 11 11 7 6 8 8 7 7 8 8 9 11 10 9 9 4 5 3 3 3 1 3 1 1 2 2 2 3 6 10 10
3 8 14 15 16 11 14 12 8 5 6 7 7 7 7 6 6 6 8 11 11 9 6 6 5 4 3 2 2 1 2 2 2 3 2 3 3 2
8 5 6 7 6 5 7 7 4 3 3 6 7 6 4 3 3 2 3 6 7 4 6 6 5 4 2 1 1 1 1 0 1 2 3 3 3 3
7 5 3 2 2 2 4 3 3 4 6 6 6 4 3 4 2 2 2 1 3 5 3 2 3 3 2 3 1 3 3 2 2 2 3 2 2 4
3 4 5 3 3 2 3 2 2 3 3 4 3 3 3 4 3 2 2 2 3 2 3 3 3 1 0 3 8 2 1 0 2 4 5 5 6 4
3 4 5 5 3 3 3 3 3 3 3 3 3 3 3 4 4 3 2 2 2 2 2 2 2 2 1 0 4 4 4 3 3 5 6 7 9 8
3 5 5 4 4 4 3 3 6 3 2 3 4 3 4 3 2 3 2 3 3 3 3 3 3 3 3 3 1 3 7 1 1 4 6 6 8 18
3 3 4 3 3 4 4 4 6 3 3 3 3 3 3 3 2 3 5 5 4 2 1 1 3 5 3 2 3 3 4 10 10 7 6 7 9 10
2 3 4 4 4 3 3 3 4 3 3 3 3 4 3 3 3 4 3 4 2 2 2 1 3 1 1 1 3 4 3 4 8 18 22 20 10 11
3 2 3 3 3 4 4 3 4 4 3 3 4 3 3 3 3 3 3 3 2 2 1 1 1 0 2 2 3 3 6 6 4 6 6 18 25 27
Wind_Direction
265 263 253 247 236 244 231 218 194 197 209 197 165 183 170 149 157 153 162 161 146 142 136 142 137 132 142 131 137 128 100 130 138 97 105 98 132 145
270 271 267 263 254 242 236 226 211 206 205 193 189 184 165 149 160 150 154 159 141 140 138 141 147 138 149 148 133 116 113 127 142 126 117 141 167 120
275 270 270 271 270 266 248 230 217 219 210 192 184 173 167 150 160 153 152 149 150 138 142 146 136 139 151 147 137 133 124 166 137 128 125 186 163 133
275 269 265 263 264 266 248 232 236 217 186 175 180 178 170 154 156 152 147 148 140 139 137 134 134 139 150 149 139 130 138 119 117 122 164 190 138 125
290 284 285 267 257 253 241 250 230 236 213 178 163 158 160 142 143 133 144 124 137 136 135 140 145 153 164 158 148 142 136 136 133 159 192 138 128 125
323 300 278 266 261 249 232 219 149 114 57 159 150 145 140 146 141 147 138 141 139 142 146 130 148 157 161 159 165 161 148 160 176 196 171 147 137 113
354 356 354 357 45 42 195 158 139 131 118 132 112 121 144 150 159 150 129 120 117 129 126 133 148 151 191 175 173 167 170 182 196 197 176 176 176 189
3 10 11 13 28 52 56 48 66 138 132 142 140 159 148 151 127 148 133 131 140 164 136 143 173 190 191 179 179 172 181 188 199 192 184 187 190 214
31 25 28 21 29 44 45 46 52 59 73 120 143 143 141 149 134 143 130 128 116 145 149 158 189 217 183 187 175 177 176 184 199 185 187 199 206 219
45 26 41 39 40 48 63 62 55 45 70 93 92 97 107 132 123 121 127 102 101 142 137 82 130 81 82 109 151 173 191 200 205 187 191 208 229 250
51 44 39 63 58 56 58 64 59 53 57 86 103 115 109 109 112 111 119 122 125 100 152 120 135 115 130 118 126 147 189 206 210 191 197 228 254 270
61 52 55 58 72 69 63 68 80 66 70 71 75 78 81 90 98 119 138 132 116 109 196 102 84 115 65 71 135 130 160 194 186 198 227 248 261 250
96 80 41 88 147 106 92 85 92 99 87 87 86 77 78 70 60 61 55 128 139 82 77 98 121 84 69 122 125 181 195 188 202 220 236 243 248 246
108 90 63 76 80 90 96 100 90 89 93 92 87 74 68 63 59 64 59 56 60 98 106 77 113 126 121 104 170 188 185 202 167 217 253 262 276 265
110 110 98 88 81 66 68 66 53 64 89 96 92 83 79 77 68 67 79 76 68 67 57 44 85 78 84 156 179 187 95 271 181 198 227 244 248 266
112 102 80 84 75 77 61 47 28 60 80 95 98 98 96 88 93 86 93 113 98 69 58 34 57 81 96 108 107 295 15 264 349 260 229 232 248 253
128 121 105 86 83 72 82 58 44 64 97 107 114 128 123 106 72 64 100 89 117 145 133 144 141 132 141 157 215 223 231 251 268 289 340 309 322 307
155 144 137 150 141 129 115 112 92 100 104 110 109 114 112 120 116 96 73 102 110 110 113 155 169 152 250 251 196 202 289 273 351 6 347 322 301 297
167 159 152 151 147 137 136 141 143 106 107 108 110 112 100 89 133 147 140 94 79 91 103 98 87 113 68 267 300 89 68 15 342 317 300 285 288 289
175 158 151 147 139 140 136 131 122 123 127 122 118 108 116 131 118 116 126 108 66 41 32 16 42 50 87 151 224 272 313 250 222 273 280 273 270 284
185 157 146 146 151 148 145 140 136 143 142 125 123 119 119 121 128 107 103 101 102 87 54 329 198 152 169 94 24 298 271 272 285 266 280 290 292 292
169 164 158 157 151 141 136 132 128 128 135 139 129 118 120 109 104 109 102 131 161 149 145 147 159 164 58 199 257 268 278 284 281 282 280 277 278 280
185 181 158 137 133 142 140 135 141 148 143 140 129 132 130 130 124 109 110 117 110 94 111 345 318 247 231 228 256 272 284 285 285 293 282 283 283 281